AMOS-17 1 44479U 19050A 21061.91160557 .00000101 00000-0 00000-0 0 9999 2 44479 0.0110 126.9377 0001578 203.9501 175.1993 1.00273843 5826 FALCON 9 R/B 1 44480U 19050B 21060.96524615 .00052681 -62714-6 12556-2 0 9992 2 44480 26.1182 271.4474 7109119 200.1604 103.4779 2.54816844 13627